Hourly Data Report for October 28, 2014

All times are specified in Local Standard Time (LST). Add 1 hour to adjust for Daylight Saving Time where and when it is observed.

TORONTO INTL A
ONTARIO

43°40'36.000" N
79°37'50.000" W
173.40 m
6158731
71624
YYZ

Download Data

Hourly Data (October 2014)
Hourly Data Report for October 28, 2014
Temp Definition
°C
Dew Point Temp Definition
°C
Rel Hum Definition
%
Wind Dir Definition
10's deg

Wind Spd Definition
km/h
Visibility Definition
km
Stn Press Definition
kPa
Hmdx Definition


Wind Chill Definition


Weather Definition


TIME
00:00 Legend Double Dagger 10.0 8.6 91 9 10 24.1 98.85     LegendNANA
01:00 Legend Double Dagger 10.1 8.7 91 8 8 24.1 98.84     Cloudy
02:00 Legend Double Dagger 10.0 8.8 92 12 5 24.1 98.87     LegendNANA
03:00 Legend Double Dagger 10.1 8.7 91 9 5 19.3 98.82     LegendNANA
04:00 Legend Double Dagger 10.2 9.1 93 8 5 14.5 98.79     Rain
05:00 Legend Double Dagger 10.3 9.4 94 13 5 14.5 98.78     Rain
06:00 Legend Double Dagger 10.4 9.3 93 10 8 16.1 98.75     LegendNANA
07:00 Legend Double Dagger 10.5 9.4 93 36 3 19.3 98.76     Mostly Cloudy
08:00 Legend Double Dagger 11.1 9.9 92 13 7 19.3 98.73     LegendNANA
09:00 Legend Double Dagger 12.9 11.0 88 15 9 19.3 98.70     LegendNANA
10:00 Legend Double Dagger 15.0 12.4 84 16 11 19.3 98.63     Mostly Cloudy
11:00 Legend Double Dagger 17.2 13.0 76 18 13 19.3 98.57     LegendNANA
12:00 Legend Double Dagger 17.3 13.1 76 16 15 24.1 98.50     LegendNANA
13:00 Legend Double Dagger 20.0 14.4 70 22 30 24.1 98.45     Cloudy
14:00 Legend Double Dagger 19.9 14.8 72 22 28 24.1 98.46     LegendNANA
15:00 Legend Double Dagger 20.2 14.6 70 23 20 24.1 98.46     LegendNANA
16:00 Legend Double Dagger 18.6 13.9 74 23 46 19.3 98.50     Rain Showers
17:00 Legend Double Dagger 14.6 12.0 84 26 18 24.1 98.61     LegendNANA
18:00 Legend Double Dagger 14.8 11.8 82 27 21 24.1 98.69     LegendNANA
19:00 Legend Double Dagger 13.8 10.6 81 28 10 24.1 98.74     Mostly Cloudy
20:00 Legend Double Dagger 12.2 9.8 85 27 13 24.1 98.77     LegendNANA
21:00 Legend Double Dagger 11.9 9.8 87 25 10 24.1 98.81     LegendNANA
22:00 Legend Double Dagger 10.9 9.2 89 24 13 24.1 98.89     Mainly Clear
23:00 Legend Double Dagger 11.2 7.4 77 27 18 24.1 98.91     LegendNANA

Notes on Data Quality.

Legend

  • E = Estimated
  • M = Missing
  • NA = Not Available
  • ‡ = Partner data that is not subject to review by the National Climate Archives
Date modified: